Zurück zum Katalog

STARLINK-4313

AktivKommunikationSSO
NORAD 53064·PAYLOAD·🇺🇸 United States

Gestartet Jul 11, 2022 von Vandenberg Space Force Base

Loading…

Nächste Überflüge (nächste 24 Stunden)

TLE

AktuellSource: CelesTrak SupGP

Epoche: Sep 14, 2026, 21:55 UTC

1 53064C 22077X   26257.91368056  .00071189  00000+0  22108-2 0  2573
2 53064  97.2855  73.6863 0001548  92.6387 223.9960 15.33389717    11

Verfolge STARLINK-4313 in Echtzeit mit AllMySat

Download on the App Store